Tracking 23441 objects as of 15-Jun-2021
HD Live streaming from Space Station
objects crossing your sky now

RISESAT

Track RISESAT now!
10-day predictions


NORAD ID: 43934
Int'l Code: 2019-003C
Perigee: 493.5 km
Apogee: 517.8 km
Inclination: 97.2 °
Period: 94.6 minutes
Semi major axis: 6876 km
RCS: Unknown
Launch date: January 18, 2019
Source: Japan (JPN)
Launch site: KAGOSHIMA SPACE CENTER UNIVERSITY OF TOKYO (KSCUT)
aabbcc
Your satellite tracking list
Your tracking list is empty




NASA's NSSDC Master Catalog

Two Line Element Set (TLE):
1 43934U 19003C   21166.44423277  .00000668  00000-0  31671-4 0  9997
2 43934  97.1774 207.1346 0017681  39.5302  75.5257 15.22438663133758
Source of the keplerian elements: AFSPC